User: anonymous   Login
Location: Colorado Springs
(38.8340°N, 104.8210°W)
Time: 10:40:40
(UTC-06:00)
Language:

Hubble Space Telescope - Orbit

View from above orbital plane
View from above orbital plane
View from above satellite
View from above satellite

Ground track
Ground track

The orbit data is extracted from the following two-line orbital elements,

1 20580U 90037B   18232.10762731  .00000407  00000-0  13891-4 0  9994
2 20580  28.4700  52.5440 0002857 106.7100 189.0822 15.09078305355130
Epoch (UTC): 20 August 2018 02:34:59
Eccentricity: 0.0002857
inclination: 28.4700°
perigee height: 537 km
apogee height: 541 km
right ascension of ascending node: 52.5440°
argument of perigee: 106.7100°
revolutions per day: 15.09078305
mean anomaly at epoch: 189.0822°
orbit number at epoch: 35513

The dashed part of the orbit path shows where the satellite is in the earth's shadow,  

DLR